Effective Sunday, March 17, 2024, the National Weather Service National Data Buoy Center will discontinue its Dial-A-Buoy Interactive Voice Response system. For more information, see Service Change Notice 24-06 (PDF).

Station SNDP5 - 1619910 - Sand Island, Midway Islands Image indicating link to RSS feed of recent meteorological observations for station SNDP5


Conditions at SNDP5 as of
2230 GMT on 02/24/2024:
     

Click on the graph icon in the table below to see a time series plot of the last five days of that observation.

5-day plot - Atmospheric Pressure Atmospheric Pressure (PRES):29.97 in
5-day plot - Air Temperature Air Temperature (ATMP): 65.7 °F
5-day plot - Water Temperature Water Temperature (WTMP): 65.1 °F
NOS Water Level Observation Network Water Level
Previous observations
TIME
(GMT)
5-day plot - Wind Direction
WDIR
 
5-day plot - Wind Speed
WSPD
kts
5-day plot - Wind Gust
GST
kts
5-day plot - Wave Height
WVHT
ft
5-day plot - Dominant Wave Period
DPD
sec
5-day plot - Average Wave Period
APD
sec
5-day plot - Mean Wave Direction
MWD
 
5-day plot - Atmospheric Pressure
PRES
in
5-day plot - Pressure Tendency
PTDY
in
5-day plot - Air Temperature
ATMP
°F
5-day plot - Water Temperature
WTMP
°F
5-day plot - Dew Point
DEWP
°F
5-day plot - Salinity
SAL
psu
5-day plot - Visibility
VIS
nmi
5-day plot - Tide (above MLLW)
TIDE
ft
2024-02-24 2224-------29.97- 65.7 65.1----
2024-02-24 2218-------29.97-- 65.1----
2024-02-24 2212-------29.97-- 64.9----
2024-02-24 2206-------29.97-- 64.9----
2024-02-24 2200-------29.98+0.03------
2024-02-24 2154-------29.98-------
2024-02-24 2148-------29.98- 64.4-----
2024-02-24 2142-------29.98- 65.3-----
2024-02-24 2136-------29.98- 65.3-----
2024-02-24 2130-------29.98- 64.9 64.9----
2024-02-24 2124-------29.98- 64.8 64.9----
2024-02-24 2118-------29.98- 64.9 64.9----
2024-02-24 2112-------29.98- 64.9 64.9----
2024-02-24 2106-------29.98- 64.9 64.9----
2024-02-24 2100-------29.98+0.05 64.6 64.9----
2024-02-24 2054-------29.98- 64.6 64.9----
2024-02-24 2048-------29.98-- 64.9----
2024-02-24 2042-------29.98-- 64.9----
2024-02-24 2036-------29.98-- 64.9----
2024-02-24 2030--------- 64.6 64.9----
2024-02-24 2024--------- 64.2 64.9----
2024-02-24 2018-------29.97- 64.4 64.9----
2024-02-24 2012-------29.97- 64.2 64.8----
2024-02-24 2006-------29.97- 64.0 64.8----
2024-02-24 2000-------29.97+0.04 64.0 64.8----
2024-02-24 1954-------29.97- 64.2 64.8----
2024-02-24 1948-------29.96- 64.0 64.8----
2024-02-24 1942-------29.96- 64.2 64.8----
2024-02-24 1936-------29.96- 64.2 64.8----
2024-02-24 1930-------29.96- 64.0-----
2024-02-24 1924-------29.95- 64.0-----
2024-02-24 1918-------29.95- 64.0 64.8----
2024-02-24 1912-------29.95- 63.9 64.8----
2024-02-24 1906-------29.95- 63.9 64.8----
2024-02-24 1900-------29.95+0.02- 64.8----
2024-02-24 1854-------29.95-- 64.8----
2024-02-24 1848-------29.95- 63.9 64.8----
2024-02-24 1842-------29.94- 63.9 64.8----
2024-02-24 1836-------29.95- 63.9 64.8----
2024-02-24 1830-------29.95- 63.9 64.8----
2024-02-24 1824-------29.94- 63.7 64.8----
2024-02-24 1818-------29.94- 63.7 64.8----
2024-02-24 1812-------29.94- 63.9 64.8----
2024-02-24 1806-------29.94- 63.9 64.8----
2024-02-24 1800-------29.93+0.01- 64.8----
2024-02-24 1754-------29.93-- 64.8----
2024-02-24 1748-------29.93-- 64.8----
2024-02-24 1742-------29.93-- 64.8----
2024-02-24 1736-------29.93-- 64.8----
2024-02-24 1730-------29.93- 64.0 64.8----
2024-02-24 1724-------29.93- 63.7 64.9----
2024-02-24 1718-------29.93- 63.9 64.9----
2024-02-24 1712-------29.93- 63.9 64.9----
2024-02-24 1706-------29.93- 63.9 64.9----
2024-02-24 1700-------29.93+0.00 63.9 64.9----
2024-02-24 1654-------29.93- 63.7 64.9----
2024-02-24 1648-------29.93-- 64.9----
2024-02-24 1642-------29.93-- 64.9----
2024-02-24 1636-------29.93-- 64.9----
2024-02-24 1630-------29.93-- 64.9----
2024-02-24 1624-------29.93-- 64.9----
2024-02-24 1618--------- 63.7 64.9----
2024-02-24 1612--------- 63.7 64.9----
2024-02-24 1606--------- 63.9 64.9----
2024-02-24 1600-------29.92-- 64.9----
2024-02-24 1554-------29.93-- 64.9----
2024-02-24 1548-------29.92-- 64.9----
2024-02-24 1542-------29.92-- 64.9----
2024-02-24 1536-------29.92-- 64.9----
2024-02-24 1530-------29.92- 63.9 64.9----
2024-02-24 1524-------29.92- 63.5 64.9----
2024-02-24 1518-------29.92- 63.5 64.9----
2024-02-24 1512-------29.92- 63.3 64.9----
2024-02-24 1506-------29.92- 63.5 64.9----
2024-02-24 1500-------29.92-0.05 63.7 64.9----
2024-02-24 1454-------29.92- 63.7 64.9----
2024-02-24 1448-------29.92-- 64.9----
2024-02-24 1442-------29.92-- 64.9----
2024-02-24 1436-------29.92-- 64.9----
2024-02-24 1430-------29.93- 63.3 64.9----
2024-02-24 1424-------29.93- 63.3 64.9----
2024-02-24 1418-------29.93- 63.5 64.9----
2024-02-24 1412-------29.93- 63.3 64.9----
2024-02-24 1406-------29.93- 63.3 64.9----
2024-02-24 1400-------29.93-0.04 63.3 64.9----
2024-02-24 1354-------29.93- 63.3 64.9----
2024-02-24 1348---------- 64.9----
2024-02-24 1342---------- 64.9----
2024-02-24 1336---------- 64.9----
2024-02-24 1330-------29.94-------
2024-02-24 1324-------29.94-------
2024-02-24 1318-------29.94-------
2024-02-24 1312-------29.95-------
2024-02-24 1306-------29.95-------
2024-02-24 1300--------- 63.1 64.9----
2024-02-24 1254--------- 63.1 64.9----
2024-02-24 1248-------29.96- 63.0 64.9----
2024-02-24 1242-------29.96- 63.3 64.9----
2024-02-24 1236-------29.96- 63.1 64.9----
2024-02-24 1230-------29.96-------
2024-02-24 1224-------29.96-------
2024-02-24 1218-------29.96-- 64.9----
2024-02-24 1212-------29.97-- 64.9----
2024-02-24 1206-------29.97-- 64.9----
2024-02-24 1200-------29.97-0.01 63.1 64.9----
2024-02-24 1154-------29.97- 63.0 64.9----
2024-02-24 1148-------29.97-- 64.9----
2024-02-24 1142-------29.97-- 64.9----
2024-02-24 1136-------29.97-- 64.9----
2024-02-24 1130-------29.97- 63.0 64.9----
2024-02-24 1124-------29.97- 63.3 64.9----
2024-02-24 1118-------29.97- 62.8 64.9----
2024-02-24 1112-------29.97- 63.0 64.9----
2024-02-24 1106-------29.97- 63.1 64.9----
2024-02-24 1100-------29.96-- 64.9----
2024-02-24 1054-------29.96-- 64.9----
2024-02-24 1048-------29.97- 63.1 64.9----
2024-02-24 1042-------29.97- 62.8 64.9----
2024-02-24 1036-------29.97- 63.0 64.9----
2024-02-24 1030-------29.97-- 64.9----
2024-02-24 1024-------29.97-- 64.9----
2024-02-24 1018-------29.97- 63.0 65.1----
2024-02-24 1012-------29.98- 62.8 64.9----
2024-02-24 1006-------29.98- 62.8 64.9----
2024-02-24 1000-------29.98+0.01- 64.9----
2024-02-24 0954-------29.98-- 64.9----
2024-02-24 0948-------29.98-- 64.9----
2024-02-24 0942-------29.98-- 64.9----
2024-02-24 0936-------29.99-- 64.9----
2024-02-24 0930-------29.98-- 64.9----
2024-02-24 0924-------29.99-- 64.9----
2024-02-24 0918-------29.99- 63.3 64.9----
2024-02-24 0912-------29.99- 63.3 64.9----
2024-02-24 0906-------29.99- 63.3 64.9----
2024-02-24 0900-------29.98+0.03 63.1 64.9----
2024-02-24 0854-------29.98- 63.3 64.9----
2024-02-24 0848-------29.98- 63.5 64.9----
2024-02-24 0842-------29.98- 63.1 64.9----
2024-02-24 0836-------29.98- 63.7 64.9----
2024-02-24 0830-------29.98-- 64.9----
2024-02-24 0824-------29.98-- 64.9----
2024-02-24 0818-------29.98-- 64.9----
2024-02-24 0812-------29.98-- 64.9----
2024-02-24 0806-------29.98-- 64.9----
2024-02-24 0800---------- 64.9----
2024-02-24 0754---------- 64.9----
2024-02-24 0748-------29.97-- 64.9----
2024-02-24 0742-------29.97-- 64.9----
2024-02-24 0736-------29.97-- 64.9----
2024-02-24 0730-------29.97-------
2024-02-24 0724-------29.97-------
2024-02-24 0718-------29.97- 63.3 65.1----
2024-02-24 0712-------29.97- 63.5 65.1----
2024-02-24 0706-------29.97- 63.3 65.1----
2024-02-24 0700-------29.96+0.02 63.3 65.1----
2024-02-24 0654-------29.96- 63.3 65.1----
2024-02-24 0648-------29.96-- 65.1----
2024-02-24 0642-------29.96-- 65.1----
2024-02-24 0636-------29.96-- 65.1----
2024-02-24 0630-------29.96- 63.0 64.9----
2024-02-24 0624-------29.95- 63.1 64.9----
2024-02-24 0618-------29.96-- 64.9----
2024-02-24 0612-------29.96-- 64.9----
2024-02-24 0606-------29.96-- 64.9----
2024-02-24 0600-------29.96+0.01 63.1 64.9----
2024-02-24 0554-------29.96- 63.1 64.9----
2024-02-24 0548-------29.96-- 64.9----
2024-02-24 0542-------29.95-- 64.9----
2024-02-24 0536-------29.96-- 65.1----
2024-02-24 0530-------29.95- 63.3 65.1----
2024-02-24 0524-------29.95- 63.5 65.1----
2024-02-24 0518-------29.95- 63.5 65.1----
2024-02-24 0512-------29.95- 63.5 65.1----
2024-02-24 0506-------29.95- 63.5 65.1----
2024-02-24 0500-------29.94+0.00- 64.9----
2024-02-24 0454-------29.94-- 65.1----
2024-02-24 0448-------29.94- 63.3 65.1----
2024-02-24 0442-------29.94- 63.5 65.1----
2024-02-24 0436-------29.94- 63.3 64.9----
2024-02-24 0430-------29.94- 63.5 65.1----
2024-02-24 0424-------29.94- 63.9 65.1----
2024-02-24 0418-------29.94- 63.5 65.1----
2024-02-24 0412-------29.94- 63.7 65.1----
2024-02-24 0406-------29.94- 63.3 65.1----
2024-02-24 0400-------29.94-0.01 63.7-----
2024-02-24 0354-------29.94- 63.7-----
2024-02-24 0348-------29.94-- 65.1----
2024-02-24 0342-------29.94-- 65.1----
2024-02-24 0336-------29.94-- 65.1----
2024-02-24 0330-------29.94- 63.5 65.1----
2024-02-24 0324-------29.94- 63.9 65.1----
2024-02-24 0318-------29.94- 64.0 65.1----
2024-02-24 0312-------29.94- 64.0 65.1----
2024-02-24 0306-------29.94- 63.9 65.1----
2024-02-24 0300-------29.94-0.04 64.0 65.1----
2024-02-24 0254-------29.94- 63.7 65.1----
2024-02-24 0248-------29.94- 63.7 65.1----
2024-02-24 0242-------29.94- 63.7 65.1----
2024-02-24 0236-------29.94- 63.7 65.1----
2024-02-24 0230-------29.94- 63.7 65.1----
2024-02-24 0224-------29.94- 64.0 65.1----
2024-02-24 0218-------29.94- 63.7 65.1----
2024-02-24 0212-------29.94- 64.0 65.1----
2024-02-24 0206-------29.95- 63.9 65.1----
2024-02-24 0200-------29.95-0.04 63.7 65.1----
2024-02-24 0154-------29.95- 63.7 65.1----
2024-02-24 0148-------29.95- 63.9 65.1----
2024-02-24 0142-------29.95- 63.9 65.1----
2024-02-24 0136-------29.95- 64.0 65.1----
2024-02-24 0130-------29.95-------
2024-02-24 0124-------29.96-------
2024-02-24 0118-------29.96-- 65.1----
2024-02-24 0112-------29.96-- 65.1----
2024-02-24 0106-------29.96-- 65.1----
2024-02-24 0100-------29.96-0.04- 65.1----
2024-02-24 0054-------29.96-- 65.1----
2024-02-24 0048-------29.96-- 65.1----
2024-02-24 0042-------29.96-- 65.1----
2024-02-24 0036-------29.97-- 65.1----
2024-02-24 0030-------29.97-- 65.1----
2024-02-24 0024-------29.97-- 65.1----
2024-02-24 0018-------29.97-- 65.1----
2024-02-24 0012-------29.98-- 65.1----
2024-02-24 0006-------29.98-- 65.1----
2024-02-24 0000-------29.98-0.03------
2024-02-23 2354-------29.98-------
2024-02-23 2348-------29.98- 64.0 64.9----
2024-02-23 2342-------29.98- 64.2 64.9----
2024-02-23 2336-------29.99- 63.7 64.9----
2024-02-23 2330-------29.99- 63.9 65.1----
2024-02-23 2324-------29.99- 63.5 65.1----
2024-02-23 2318-------29.99-- 64.9----
2024-02-23 2312-------29.99-- 65.1----
2024-02-23 2306-------29.99-- 65.1----
2024-02-23 2300-------29.99-0.01 63.5 65.1----
2024-02-23 2254-------30.00- 63.7 65.1----